User: anonymous   Login
Location: ??
(35.3149°N, 139.6204°E)
Time: 01:05:18
(UTC+00:00)
Language:

Cosmos 372 Rocket - Orbit

View from above orbital plane
View from above orbital plane
View from above satellite
View from above satellite

Ground track
Ground track

The orbit data is extracted from the following two-line orbital elements,

1 04589U 70086B   24287.48341005  .00001600  00000-0  48763-3 0  9993
2 04589  74.0611  48.0314 0021309 306.9442  52.9762 14.42685219832286
Epoch (UTC): 13 October 2024 11:36:06
Eccentricity: 0.0021309
inclination: 74.0611°
perigee height: 734 km
apogee height: 765 km
right ascension of ascending node: 48.0314°
argument of perigee: 306.9442°
revolutions per day: 14.42685219
mean anomaly at epoch: 52.9762°
orbit number at epoch: 83228

The dashed part of the orbit path shows where the satellite is in the earth's shadow,  

DLR